Powrót do katalogu

ELECTRON KICK STAGE R/B

AktywnyVLEO
NORAD 64230·ROCKET BODY·🇺🇸 United States

Wystrzelony Jun 2, 2025 z Rocket Lab Launch Complex 1

Loading…

Następne Przeloty (najbliższe 24 godziny)

TLE

ŚwieżeSource: Space-Track

Epoka: Sep 14, 2026, 14:02 UTC

1 64230U 25118A   26257.58498336  .00243711  00000-0  10100-2 0  9992
2 64230  58.9700  94.4368 0002967  87.1258 273.0179 15.84763477 72599

Śledź ELECTRON KICK STAGE R/B w czasie rzeczywistym z AllMySat

Download on the App Store